Waarnemingen

Advertentie
Mijn weer
Nancy/Essey, Frankrijk (7180): temperatuur & dauwpunt: 23.03.2017 01:00:00 - 29.03.2017 01:00:00 (CEST)Nancy/Essey, Frankrijk (7180): temperatuur 5cm: 23.03.2017 01:00:00 - 29.03.2017 01:00:00 (CEST)Nancy/Essey, Frankrijk (7180): temperatuur -20cm & temperatuur -100cm: 23.03.2017 01:00:00 - 29.03.2017 01:00:00 (CEST)Nancy/Essey, Frankrijk (7180): windsnelheid & windstoten: 23.03.2017 01:00:00 - 29.03.2017 01:00:00 (CEST)Nancy/Essey, Frankrijk (7180): windrichting: 23.03.2017 01:00:00 - 29.03.2017 01:00:00 (CEST)Nancy/Essey, Frankrijk (7180): luchtdruk: 23.03.2017 01:00:00 - 29.03.2017 01:00:00 (CEST)Nancy/Essey, Frankrijk (7180): zicht: 23.03.2017 01:00:00 - 29.03.2017 01:00:00 (CEST)Nancy/Essey, Frankrijk (7180): Zonneschijnduur: 23.03.2017 01:00:00 - 29.03.2017 01:00:00 (CEST)Nancy/Essey, Frankrijk (7180): neerslag: 23.03.2017 01:00:00 - 29.03.2017 01:00:00 (CEST)
Datum & Tijd tt [°C] td [°C] tt 5cm [°C] tt -20cm [°C] tt -100cm [°C] ff [km/u] ff [kn] fx [km/u] fx [kn] dd ppp [hPa] vv [km] sd [min] rr [mm]
29.03.2017 01:00:00 10,8 6,2 4,5 10,0 8,5 3 2 9 5 WZW 1027,4 60 0 0,0
29.03.2017 00:00:00 12,3 6,6 8,4 10,0 8,5 5 3 17 9 WZW 1026,8 60 0 0,0
28.03.2017 23:00:00 13,1 6,7 9,2 10,0 8,5 6 4 18 10 WZW 1026,4 59 0 0,0
28.03.2017 22:00:00 14,2 6,5 12,2 9,9 8,5 11 6 26 14 WNW 1025,9 57 0 0,0
28.03.2017 21:00:00 15,7 6,4 13,2 9,8 8,5 9 5 32 17 W 1025,0 45 0 0,0
28.03.2017 20:00:00 16,9 6,7 14,7 9,7 8,5 11 6 35 19 W 1024,1 56 27 0,0
28.03.2017 19:00:00 18,6 6,7 18,5 9,6 8,4 19 10 32 17 W 1023,2 47 60 0,0
28.03.2017 18:00:00 19,5 6,6 18,4 9,5 8,5 20 11 33 18 W 1022,8 20 47 0,0
28.03.2017 17:00:00 20,4 6,3 19,7 9,2 8,5 14 8 28 15 WZW 1022,5 46 23 0,0
28.03.2017 16:00:00 20,0 7,4 20,3 9,1 8,4 13 7 32 17 WZW 1022,5 19 43 0,0
28.03.2017 15:00:00 19,8 8,8 23,5 8,9 8,4 19 10 30 16 Z 1022,6 60 60 0,0
28.03.2017 14:00:00 18,4 8,4 23,6 8,9 8,4 18 10 28 15 ZZO 1023,2 20 60 0,0
28.03.2017 13:00:00 17,2 8,3 22,7 8,8 8,4 15 8 27 14 Z 1023,7 20 60 0,0
28.03.2017 12:00:00 16,2 7,7 21,0 8,8 8,4 14 8 29 16 Z 1024,0 20 60 0,0
28.03.2017 11:00:00 14,8 7,3 18,1 8,9 8,4 14 7 23 12 Z 1023,7 20 60 0,0
28.03.2017 10:00:00 12,5 7,0 14,4 8,9 8,4 12 7 23 12 Z 1023,7 58 60 0,0
28.03.2017 09:00:00 10,1 6,4 2,5 9,0 8,4 3 2 9 5 ZO 1023,7 19 60 0,0
28.03.2017 08:00:00 4,3 3,3 -0,6 9,1 8,4 5 3 9 5 O 1024,0 13 19 0,0
28.03.2017 07:00:00 3,5 2,9 -1,6 9,2 8,4 3 2 6 4 O 1023,7 13 0 0,0
28.03.2017 06:00:00 3,0 1,7 -0,9 9,3 8,4 4 2 5 3 OZO 1023,5 15 0 0,0
28.03.2017 05:00:00 3,9 2,7 -0,6 9,4 8,4 4 2 8 4 OZO 1023,3 17 0 0,0
28.03.2017 04:00:00 4,3 2,6 -0,2 9,5 8,4 3 2 5 3 NNO 1023,1 18 0 0,0
28.03.2017 03:00:00 4,8 3,0 0,2 9,6 8,4 3 1 5 3 ZO 1023,3 15 0 0,0
28.03.2017 02:00:00 5,9 3,1 1,0 9,6 8,4 2 1 8 4 Z 1023,1 18 0 0,0
28.03.2017 01:00:00 5,6 3,1 0,7 9,7 8,4 6 4 11 6 O 1022,7 20 0 0,0
28.03.2017 00:00:00 7,6 3,4 2,3 9,7 8,4 5 3 7 4 ZZO 1022,4 47 0 0,0
27.03.2017 23:00:00 8,5 4,3 3,0 9,7 8,4 2 1 5 3 ZW 1022,3 35 0 0,0
27.03.2017 22:00:00 11,5 4,5 5,8 9,7 8,4 6 3 15 8 ONO 1021,7 41 0 0,0
27.03.2017 21:00:00 11,0 4,7 5,2 9,6 8,4 10 6 16 8 NO 1021,3 48 0 0,0
27.03.2017 20:00:00 15,8 4,2 8,8 9,4 8,4 6 3 14 8 ZO 1020,3 60 31 0,0
27.03.2017 19:00:00 18,6 3,6 19,5 9,2 8,4 10 5 24 13 Z 1019,9 19 60 0,0
27.03.2017 18:00:00 19,0 3,6 22,2 9,0 8,4 15 8 24 13 Z 1019,5 59 60 0,0
27.03.2017 17:00:00 18,8 5,6 22,5 8,9 8,4 9 5 23 12 ZZO 1019,9 20 60 0,0
27.03.2017 16:00:00 18,0 4,5 22,2 8,7 8,4 10 5 27 15 ZZO 1020,4 53 60 0,0
27.03.2017 15:00:00 16,8 4,5 21,9 8,6 8,4 8 5 23 12 OZO 1020,9 43 60 0,0
27.03.2017 14:00:00 15,9 3,0 21,3 8,5 8,4 7 4 20 11 ZO 1021,8 20 60 0,0
27.03.2017 13:00:00 14,4 3,5 19,6 8,5 8,4 8 4 23 13 OZO 1022,1 48 60 0,0
27.03.2017 12:00:00 12,5 1,8 16,5 8,5 8,4 5 3 21 11 OZO 1022,5 53 60 0,0
27.03.2017 11:00:00 10,2 1,8 12,9 8,6 8,4 10 6 21 12 NO 1022,7 40 60 0,0
27.03.2017 10:00:00 8,2 1,6 10,0 8,7 8,4 13 7 24 13 ONO 1022,9 20 60 0,0
27.03.2017 09:00:00 6,1 2,0 2,2 8,8 8,4 9 5 13 7 ONO 1023,2 20 60 0,0
27.03.2017 08:00:00 3,8 0,5 -1,0 8,9 8,4 5 3 13 7 OZO 1023,2 20 20 0,0
27.03.2017 07:00:00 2,1 -0,2 -1,9 8,9 8,4 5 3 10 5 ONO 1022,8 19 0 0,0
27.03.2017 06:00:00 3,3 0,5 -0,6 9,0 8,4 4 2 13 7 ONO 1022,5 20 0 0,0
27.03.2017 05:00:00 4,0 0,9 -1,8 9,1 8,4 4 2 16 9 O 1022,2 21 0 0,0
27.03.2017 04:00:00 2,8 0,5 -1,4 9,2 8,4 4 2 7 4 O 1022,6 18 0 0,0
27.03.2017 03:00:00 3,5 0,7 -0,6 9,3 8,4 3 2 8 5 OZO 1022,6 20 0 0,0
27.03.2017 02:00:00 5,7 0,8 0,5 9,3 8,4 6 3 10 5 NNO 1022,5 27 0 0,0
27.03.2017 01:00:00 7,5 1,3 1,9 9,4 8,4 5 3 13 7 NNO 1022,5 29 0 0,0
27.03.2017 00:00:00 7,0 1,9 2,6 9,4 8,4 2 1 18 10 NO 1022,7 23 0 0,0
26.03.2017 23:00:00 7,4 1,9 2,7 9,4 8,4 6 4 17 9 NO 1022,5 29 0 0,0
26.03.2017 22:00:00 8,7 2,0 4,5 9,4 8,4 13 7 20 11 NO 1022,3 40 0 0,0
26.03.2017 21:00:00 9,8 1,7 5,4 9,3 8,4 12 7 23 12 ONO 1021,8 60 0 0,0
26.03.2017 20:00:00 12,1 3,3 7,6 9,2 8,4 12 6 19 10 NO 1021,0 46 28 0,0
26.03.2017 19:00:00 15,2 2,7 15,5 9,1 8,4 14 7 28 15 NO 1020,5 45 60 0,0
26.03.2017 18:00:00 16,2 2,6 19,0 8,9 8,4 15 8 29 16 ONO 1020,3 55 60 0,0
26.03.2017 17:00:00 16,5 2,8 20,1 8,7 8,4 13 7 26 14 OZO 1020,2 54 60 0,0
26.03.2017 16:00:00 15,9 2,3 19,8 8,6 8,4 13 7 31 17 NO 1020,6 35 60 0,0
26.03.2017 15:00:00 15,5 4,2 19,2 8,4 8,3 12 6 34 18 OZO 1021,1 20 60 0,0
26.03.2017 14:00:00 13,9 3,1 18,2 8,4 8,4 12 7 34 19 NO 1021,8 36 60 0,0
26.03.2017 13:00:00 12,7 3,6 18,3 8,3 8,4 14 7 24 13 ONO 1022,2 20 60 0,0
26.03.2017 12:00:00 12,0 3,7 16,5 8,4 8,4 7 4 16 9 OZO 1022,1 31 60 0,0
26.03.2017 11:00:00 10,5 2,1 12,1 8,4 8,3 10 5 23 13 OZO 1022,4 20 60 0,0
26.03.2017 10:00:00 8,8 1,5 9,5 8,5 8,4 16 9 26 14 O 1022,7 20 60 0,0
26.03.2017 09:00:00 6,0 0,9 2,0 8,6 8,3 10 6 18 10 NNO 1022,8 17 60 0,0
26.03.2017 08:00:00 2,2 -0,4 -2,9 8,7 8,4 15 8 19 11 NO 1022,1 34 12 0,0
26.03.2017 07:00:00 1,6 -1,1 -2,9 8,7 8,3 4 2 8 4 ONO 1022,0 37 0 0,0
26.03.2017 06:00:00 2,9 -0,9 -2,0 8,8 8,3 4 2 11 6 O 1021,6 42 0 0,0
26.03.2017 05:00:00 3,6 -1,0 -0,4 8,9 8,3 7 4 10 6 ONO 1021,0 48 0 0,0
26.03.2017 04:00:00 5,1 -0,1 1,0 9,0 8,3 4 2 19 11 ZO 1020,7 44 0 0,0
26.03.2017 03:00:00 6,4 0,1 2,1 9,0 8,3 17 9 23 12 NO 1020,5 55 0 0,0
26.03.2017 02:00:00 6,4 0,3 2,9 9,1 8,3 14 8 21 12 NO 1020,2 45 0 0,0
26.03.2017 01:00:00 6,4 -0,1 3,0 9,1 8,3 18 10 26 14 NO 1020,3 41 0 0,0
26.03.2017 00:00:00 8,0 0,0 4,1 9,2 8,3 21 11 26 14 NO 1020,2 59 0 0,0
25.03.2017 23:00:00 9,4 0,0 6,4 9,1 8,3 18 10 27 15 NO 1020,0 60 0 0,0
25.03.2017 22:00:00 9,8 -0,7 3,7 9,2 8,3 10 5 16 9 NNO 1019,8 60 0 0,0
25.03.2017 21:00:00 9,9 -0,3 5,0 9,1 8,3 11 6 23 12 NO 1019,3 60 0 0,0
25.03.2017 20:00:00 11,6 1,2 9,5 9,0 8,3 17 9 44 24 ONO 1018,9 60 27 0,0
25.03.2017 19:00:00 15,1 0,5 14,6 8,9 8,3 28 15 49 26 ONO 1018,2 51 60 0,0
25.03.2017 18:00:00 15,9 0,0 17,3 8,8 8,3 39 21 55 30 NO 1018,5 42 60 0,0
25.03.2017 17:00:00 16,0 2,4 18,0 8,7 8,3 38 20 58 31 ONO 1018,9 20 60 0,0
25.03.2017 16:00:00 16,2 3,3 18,4 8,6 8,3 36 19 56 30 ONO 1019,3 20 60 0,0
25.03.2017 15:00:00 15,8 3,2 18,1 8,5 8,3 38 21 59 32 NO 1019,9 14 60 0,0
25.03.2017 14:00:00 15,1 4,7 17,1 8,4 8,3 35 19 51 28 NO 1020,6 13 60 0,0
25.03.2017 13:00:00 13,4 4,3 15,4 8,4 8,3 35 19 56 30 NO 1021,7 12 60 0,0
25.03.2017 12:00:00 11,6 5,0 12,8 8,4 8,3 34 18 55 30 NO 1022,5 11 60 0,0
25.03.2017 11:00:00 9,3 4,3 12,0 8,4 8,3 29 15 49 27 ONO 1023,9 10 60 0,0
25.03.2017 10:00:00 7,8 4,6 8,5 8,5 8,3 23 12 35 19 NO 1024,3 9 52 0,0
25.03.2017 09:00:00 6,2 3,9 4,5 8,5 8,3 20 11 33 18 NO 1024,9 8 48 0,0
25.03.2017 08:00:00 5,1 3,1 3,2 8,6 8,3 16 9 24 13 NNO 1025,2 6 0 0,0
25.03.2017 07:00:00 5,1 2,9 2,7 8,6 8,2 13 7 22 12 NNO 1025,1 6 0 0,0
25.03.2017 06:00:00 5,1 2,9 2,8 8,7 8,2 10 5 21 12 NNO 1025,2 7 0 0,0
25.03.2017 05:00:00 5,8 3,5 4,0 8,8 8,3 16 9 26 14 NNO 1025,3 9 0 0,0
25.03.2017 04:00:00 6,5 3,8 3,4 8,8 8,2 18 10 26 14 NNO 1025,8 9 0 0,0
25.03.2017 03:00:00 6,0 3,8 3,2 8,9 8,3 10 5 20 11 NNO 1026,3 10 0 0,0
25.03.2017 02:00:00 5,9 3,7 2,5 8,9 8,2 9 5 18 10 NNO 1026,3 10 0 0,0
25.03.2017 01:00:00 6,8 4,3 4,9 8,9 8,2 11 6 29 16 NO 1026,2 12 0 0,0
25.03.2017 00:00:00 7,8 4,9 5,5 9,0 8,2 22 12 31 17 NO 1026,7 12 0 0,0
24.03.2017 23:00:00 7,6 4,7 5,4 9,0 8,3 8 4 18 10 NNO 1027,0 10 0 0,0
24.03.2017 22:00:00 7,5 4,8 5,0 9,0 8,3 9 5 17 9 N 1026,5 9 0 0,0
24.03.2017 21:00:00 8,0 4,9 6,1 9,0 8,2 15 8 24 13 ONO 1026,2 11 0 0,0
24.03.2017 20:00:00 9,4 5,8 8,0 8,9 8,2 16 9 30 16 NO 1025,3 11 0 0,0
24.03.2017 19:00:00 10,4 6,0 9,8 8,9 8,2 22 12 34 18 ONO 1025,0 12 0 0,0
24.03.2017 18:00:00 11,0 6,5 11,3 8,9 8,2 24 13 39 21 ONO 1024,6 12 0 0,0
24.03.2017 17:00:00 11,1 6,2 11,3 8,8 8,2 26 14 40 22 ONO 1024,4 13 0 0,0
24.03.2017 16:00:00 10,7 6,4 11,2 8,8 8,2 26 14 41 22 ONO 1024,8 13 0 0,0
24.03.2017 15:00:00 10,6 6,7 10,8 8,8 8,2 25 14 39 21 NO 1024,5 12 0 0,0
24.03.2017 14:00:00 10,5 6,4 10,8 8,7 8,2 23 13 42 23 NO 1024,9 11 0 0,0
24.03.2017 13:00:00 10,1 6,4 11,1 8,7 8,2 27 15 42 23 NO 1024,5 10 0 0,0
24.03.2017 12:00:00 10,1 6,6 10,3 8,7 8,2 27 15 37 20 NO 1024,4 11 0 0,0
24.03.2017 11:00:00 9,4 6,8 8,8 8,8 8,2 19 11 31 17 NO 1023,7 10 0 0,0
24.03.2017 10:00:00 8,7 6,3 8,1 8,8 8,2 17 9 33 18 O 1023,4 9 0 0,0
24.03.2017 09:00:00 7,9 6,2 5,7 8,9 8,2 16 9 26 14 ONO 1022,4 9 0 0,0
24.03.2017 08:00:00 6,6 5,2 4,9 8,9 8,2 10 6 23 13 NO 1021,2 9 0 0,0
24.03.2017 07:00:00 6,2 5,0 2,9 9,0 8,2 11 6 19 10 NO 1020,8 8 0 0,0
24.03.2017 06:00:00 6,2 4,0 3,0 9,0 8,2 6 3 10 6 NNO 1021,1 9 0 0,0
24.03.2017 05:00:00 6,3 4,9 4,0 9,1 8,2 8 4 15 8 ONO 1020,2 9 0 0,0
24.03.2017 04:00:00 7,0 5,1 3,4 9,1 8,2 5 3 9 5 NO 1020,6 10 0 0,0
24.03.2017 03:00:00 7,7 5,7 3,9 9,1 8,2 5 3 12 7 OZO 1020,5 15 0 0,0
24.03.2017 02:00:00 8,8 6,2 6,1 9,1 8,2 3 2 21 11 O 1019,3 17 0 0,0
24.03.2017 01:00:00 10,2 6,5 8,0 9,1 8,2 13 7 25 13 NNO 1018,2 20 0 0,0
24.03.2017 00:00:00 11,0 6,1 8,6 9,1 8,2 20 11 29 16 NNO 1017,0 27 0 0,0
23.03.2017 23:00:00 11,3 6,6 8,9 9,1 8,2 10 6 39 21 O 1017,1 17 0 0,2
23.03.2017 22:00:00 11,8 5,6 10,6 9,1 8,2 24 13 42 23 ONO 1014,1 42 0 0,0
23.03.2017 21:00:00 12,1 4,3 10,8 9,0 8,2 22 12 44 24 NO 1013,4 60 0 0,0
23.03.2017 20:00:00 13,6 5,7 12,0 8,9 8,2 23 12 34 18 ONO 1012,8 60 13 0,0
23.03.2017 19:00:00 15,1 6,6 14,3 8,8 8,2 16 9 39 21 NO 1012,1 60 24 0,0
23.03.2017 18:00:00 15,6 6,0 15,5 8,7 8,2 22 12 44 24 NO 1011,8 60 40 0,0
23.03.2017 17:00:00 16,5 5,7 16,7 8,5 8,2 24 13 34 19 NNO 1011,8 59 53 0,0
23.03.2017 16:00:00 15,6 5,5 17,0 8,5 8,2 18 10 29 16 NO 1012,3 60 46 0,0
23.03.2017 15:00:00 15,4 6,9 14,3 8,4 8,2 19 10 29 16 NNO 1012,4 53 39 0,0
23.03.2017 14:00:00 12,7 6,9 12,9 8,3 8,1 11 6 21 11 NO 1013,5 30 0 0,0
23.03.2017 13:00:00 11,8 7,3 12,5 8,3 8,2 10 5 23 13 NO 1013,6 19 14 0,0
23.03.2017 12:00:00 10,9 6,0 12,2 8,3 8,2 10 6 18 10 NO 1013,4 18 21 0,0
23.03.2017 11:00:00 9,4 6,1 8,9 8,4 8,2 7 4 17 9 ONO 1013,7 14 53 0,0
23.03.2017 10:00:00 6,7 4,9 6,8 8,5 8,2 13 7 24 13 NO 1013,4 7 56 0,0
23.03.2017 09:00:00 4,8 4,5 1,3 8,5 8,2 12 7 16 9 NNO 1013,5 4,3 11 0,0
23.03.2017 08:00:00 2,7 2,4 -0,6 8,6 8,2 4 2 7 4 ONO 1013,5 3,3 0 0,0
23.03.2017 07:00:00 1,6 1,3 -1,2 8,6 8,1 1 1 7 4 O 1013,0 2,7 0 0,0
23.03.2017 06:00:00 2,4 2,1 -0,9 8,7 8,2 6 3 13 7 ONO 1012,7 3,3 0 0,0
23.03.2017 05:00:00 2,8 2,5 -0,8 8,8 8,1 5 3 9 5 NO 1012,5 3,8 0 0,0
23.03.2017 04:00:00 3,4 3,1 0,1 8,8 8,1 4 2 9 5 ONO 1012,8 7 0 0,0
23.03.2017 03:00:00 3,5 2,6 0,8 8,9 8,1 7 4 9 5 ONO 1012,9 9 0 0,0
23.03.2017 02:00:00 4,4 3,1 2,0 8,9 8,1 3 2 11 6 NO 1013,0 14 0 0,0
23.03.2017 01:00:00 - - - - - - - - - - - - - -

tt = temperatuur
td = dauwpunt
tt 5cm = temperatuur 5cm
tt -20cm = temperatuur -20cm
tt -100cm = temperatuur -100cm
ff = windsnelheid
fx = windstoten
dd = windrichting
ppp = luchtdruk
vv = zicht
sd = Zonneschijnduur
rr = neerslag

Weerstations in de omgeving